SL-12 DEB

Satellite information

Favourite Embed

Satellite Type and Status

DEBRISIN ORBIT

Key statistics

Satellite SL-12 DEB at a glance.

Uptime

14712

Days in orbit

Revolutions

≈ 14.4

Per day

Orbit

LEO

Low Earth Orbit

Inclination

66.6

Latest

Satellite identification and parameters

Extended collection of information and parameters for SL-12 DEB.

Object identification

Identified? True

Debris? True

Object name: SL-12 DEB

International designator: 1985-042J

Object number (NORAD): 18766

Object ID (CCSDS): 18766

Country: COMMONWEALTH OF INDEPENDENT STATES (CIS)

Current information (Y/N): Y

RCS size: SMALL

Orbital parameters

Period: 99.822 minutes

Inclination: 66.5632 deg

SMA: 7128.185 km

Apoapsis: 776.416 km

Periapsis: 723.683 km

RAAN: 64.4047 deg

Eccentricy: 0.00369893

Argument of periapsis: 57.55 deg

Mean anomaly: 16.1366 deg

Mean motion: 14.42561512 rev/day

Mean motion (dot): 0.00003984 rev/day2

B* drag term: 0.0012145333 1/REarth

Two-line elements (TLE)

Creation date: Sept. 8, 2025, 6:18 p.m.

Reference frame: TEME

Reference center: EARTH

Epoch: Sept. 8, 2025, 3:18 p.m. UTC

TLE line 0: 0 SL-12 DEB

TLE line 1: 1 18766U 85042J 25251.63814096 .00003984 00000-0 12145-2 0 9998

TLE line 2: 2 18766 66.5632 64.4047 0036989 57.5500 16.1366 14.42561512949231

Live tracking on map

Real-time ground track for satellite SL-12 DEB.

In-orbit conjunctions

A list of the most updated potential collisions computed for object SL-12 DEB.

Target Orbit TCA Probability of collision Miss distance Type
THOR ABLESTAR DEB LEO 2025-08-31 13:13:39 0.0001930157 156.0 (m) DEBRIS
FENGYUN 1C DEB SSO 2025-08-22 21:11:47 0.0002368805 91.0 (m) DEBRIS
DMSP 5D-2 F11 DEB SSO 2025-05-21 05:23:47 0.00011131 559.0 (m) DEBRIS

Associated space launch

Second generation ELING satellite

SL-12 DEB was lifted into orbit during the mission ‘Proton | Tselina-2 2’, on board a Proton space rocket.

The launch took place on May 30, 1985, 2:59 p.m. from 200/40.

For more information about the launch, click the button.

Launch to space Proton | Tselina-2 2
Proton | Tselina-2 2

Agency: N/A

Status: Launch Successful

Launch date: May 30, 1985, 2:59 p.m. UTC

Rocket: Proton

Launch pad: 200/40

Location: Baikonur Cosmodrome, Republic of Kazakhstan

...

Latest news about this satellite

There are no fresh news available about this satellite. Check back as we update our databases every day.


Newsletter sign-up

Weekly statistics, charts and insights to help you stay on top of the space industry.